User: anonymous   Login
Location: Montreal
(45.5000°N, 73.5833°W)
Time: 17:54:36
(UTC-04:00)
Language:

Tiangong 2 - Orbit

View from above orbital plane
View from above orbital plane
View from above satellite
View from above satellite

Ground track
Ground track

The orbit data is extracted from the following two-line orbital elements,

1 41765U 16057A   17292.44301601  .00005467  00000-0  72381-4 0  9999
2 41765  42.7842 336.7192 0002853   0.0403 133.3098 15.59227078 62379
Epoch (UTC): 19 October 2017 10:37:56
Eccentricity: 0.0002853
inclination: 42.7842°
perigee height: 388 km
apogee height: 392 km
right ascension of ascending node: 336.7192°
argument of perigee: 0.0403°
revolutions per day: 15.59227078
mean anomaly at epoch: 133.3098°
orbit number at epoch: 6237

The dashed part of the orbit path shows where the satellite is in the earth's shadow,  

DLR